Location: Ar Ranvel
(48.3000°N, 4.8833°W)
Time: 09:37:28
(UTC+00:00)

Cosmos 1844 Rocket - Pass Details

Date: 16 June 2021
Orbit: 823 x 846 km, 71.0° (Epoch: 01 August)

Event Time Altitude Azimuth Distance (km) Brightness Sun altitude
Rises 22:17:14 0° 329° (NNW) 3,411 7.9 -13.2°
Reaches altitude 10° 22:19:43 10° 325° (NW) 2,474 6.6 -13.4°
Maximum altitude 22:25:15 56° 249° (WSW) 1,000 3.1 -13.8°
Enters shadow 22:29:22 18° 176° (S) 1,956 4.0 -14.1°
